Time,TemperatureF,DewpointF,PressureIn,WindDirection,WindDirectionDegrees,WindSpeedMPH,WindSpeedGustMPH,Humidity,HourlyPrecipIn,Conditions,Clouds,dailyrainin,SoftwareType,DateUTC
2013-04-30 00:01:00,34.0,26.0,29.99,SW,230,2.0,5.0,72,0.00,,,0.03,,2013-04-30 07:01:00,
2013-04-30 00:11:00,34.0,26.0,29.99,SW,230,2.0,5.0,72,0.00,,,0.03,,2013-04-30 07:11:00,
2013-04-30 00:21:00,33.0,24.0,29.99,WSW,243,2.0,7.0,70,0.00,,,0.03,,2013-04-30 07:21:00,
2013-04-30 00:31:00,33.0,24.0,29.99,West,276,5.0,10.0,69,0.00,,,0.03,,2013-04-30 07:31:00,
2013-04-30 00:41:00,33.0,24.0,29.99,West,276,5.0,10.0,69,0.00,,,0.03,,2013-04-30 07:41:00,
2013-04-30 00:52:00,33.0,23.0,29.99,West,276,4.0,8.0,67,0.00,,,0.03,,2013-04-30 07:52:00,
2013-04-30 01:02:00,32.0,22.0,30.00,West,274,2.0,8.0,66,0.00,,,0.03,,2013-04-30 08:02:00,
2013-04-30 01:11:00,32.0,22.0,30.00,West,274,2.0,8.0,66,0.00,,,0.03,,2013-04-30 08:11:00,
2013-04-30 01:21:00,32.0,22.0,30.00,WNW,282,1.0,5.0,66,0.00,,,0.03,,2013-04-30 08:21:00,
2013-04-30 01:32:00,32.0,22.0,30.01,WNW,282,0.0,1.0,66,0.00,,,0.03,,2013-04-30 08:32:00,
2013-04-30 01:41:00,32.0,22.0,30.01,WNW,282,0.0,1.0,66,0.00,,,0.03,,2013-04-30 08:41:00,
2013-04-30 01:51:00,31.0,22.0,30.01,WNW,282,0.0,2.0,68,0.00,,,0.03,,2013-04-30 08:51:00,
2013-04-30 02:01:00,30.0,22.0,30.01,WNW,282,0.0,1.0,71,0.00,,,0.03,,2013-04-30 09:01:00,
2013-04-30 02:11:00,30.0,22.0,30.01,WNW,282,0.0,1.0,71,0.00,,,0.03,,2013-04-30 09:11:00,
2013-04-30 02:21:00,29.0,22.0,30.02,WNW,282,0.0,1.0,74,0.00,,,0.03,,2013-04-30 09:21:00,
2013-04-30 02:33:00,28.0,23.0,30.02,WNW,282,0.0,2.0,80,0.00,,,0.03,,2013-04-30 09:33:00,
2013-04-30 02:43:00,28.0,23.0,30.02,WNW,282,0.0,2.0,80,0.00,,,0.03,,2013-04-30 09:43:00,
2013-04-30 02:52:00,28.0,23.0,30.03,WNW,282,0.0,1.0,82,0.00,,,0.03,,2013-04-30 09:52:00,
2013-04-30 03:02:00,27.0,23.0,30.03,WNW,282,0.0,0.0,83,0.00,,,0.03,,2013-04-30 10:02:00,
2013-04-30 03:11:00,27.0,23.0,30.03,WNW,282,0.0,0.0,83,0.00,,,0.03,,2013-04-30 10:11:00,
2013-04-30 03:22:00,26.0,22.0,30.03,WNW,282,0.0,0.0,85,0.00,,,0.03,,2013-04-30 10:22:00,
2013-04-30 03:32:00,26.0,22.0,30.03,WNW,282,0.0,0.0,86,0.00,,,0.03,,2013-04-30 10:32:00,
2013-04-30 03:41:00,26.0,22.0,30.03,WNW,282,0.0,0.0,86,0.00,,,0.03,,2013-04-30 10:41:00,
2013-04-30 03:52:00,25.0,22.0,30.04,WNW,282,0.0,2.0,87,0.00,,,0.03,,2013-04-30 10:52:00,
2013-04-30 04:01:00,25.0,22.0,30.05,WNW,282,0.0,2.0,87,0.00,,,0.03,,2013-04-30 11:01:00,
2013-04-30 04:11:00,25.0,22.0,30.05,WNW,282,0.0,2.0,87,0.00,,,0.03,,2013-04-30 11:11:00,
2013-04-30 04:21:00,25.0,22.0,30.05,WNW,282,0.0,1.0,87,0.00,,,0.03,,2013-04-30 11:21:00,
2013-04-30 04:31:00,24.0,21.0,30.06,WNW,282,0.0,1.0,87,0.00,,,0.03,,2013-04-30 11:31:00,
2013-04-30 04:42:00,24.0,21.0,30.06,WNW,282,0.0,1.0,87,0.00,,,0.03,,2013-04-30 11:42:00,
2013-04-30 04:51:00,24.0,21.0,30.06,WNW,282,0.0,0.0,87,0.00,,,0.03,,2013-04-30 11:51:00,
2013-04-30 05:01:00,23.0,20.0,30.06,WNW,282,0.0,0.0,88,0.00,,,0.03,,2013-04-30 12:01:00,
2013-04-30 05:11:00,23.0,20.0,30.06,WNW,282,0.0,0.0,88,0.00,,,0.03,,2013-04-30 12:11:00,
2013-04-30 05:21:00,23.0,20.0,30.08,WNW,282,0.0,2.0,89,0.00,,,0.03,,2013-04-30 12:21:00,
2013-04-30 05:31:00,22.0,20.0,30.09,WNW,289,0.0,3.0,90,0.00,,,0.03,,2013-04-30 12:31:00,
2013-04-30 05:41:00,22.0,20.0,30.09,WNW,289,0.0,3.0,90,0.00,,,0.03,,2013-04-30 12:41:00,
2013-04-30 05:51:00,22.0,20.0,30.09,WNW,293,0.0,3.0,90,0.00,,,0.03,,2013-04-30 12:51:00,
2013-04-30 06:01:00,22.0,20.0,30.10,WNW,293,0.0,2.0,91,0.00,,,0.03,,2013-04-30 13:01:00,
2013-04-30 06:11:00,22.0,20.0,30.10,WNW,293,0.0,2.0,91,0.00,,,0.03,,2013-04-30 13:11:00,
2013-04-30 06:21:00,21.0,19.0,30.10,WNW,293,0.0,1.0,91,0.00,,,0.03,,2013-04-30 13:21:00,
2013-04-30 06:31:00,21.0,19.0,30.11,WNW,293,0.0,1.0,91,0.00,,,0.02,,2013-04-30 13:31:00,
2013-04-30 06:41:00,21.0,19.0,30.11,WNW,293,0.0,1.0,91,0.00,,,0.02,,2013-04-30 13:41:00,
2013-04-30 06:51:00,21.0,19.0,30.11,WNW,293,0.0,1.0,92,0.00,,,0.02,,2013-04-30 13:51:00,
2013-04-30 07:01:00,22.0,20.0,30.12,WNW,293,0.0,2.0,92,0.00,,,0.02,,2013-04-30 14:01:00,
2013-04-30 07:11:00,22.0,20.0,30.12,WNW,293,0.0,2.0,92,0.00,,,0.02,,2013-04-30 14:11:00,
2013-04-30 07:21:00,22.0,20.0,30.13,WNW,294,2.0,3.0,92,0.00,,,0.02,,2013-04-30 14:21:00,
2013-04-30 07:31:00,23.0,21.0,30.13,WNW,294,0.0,2.0,92,0.00,,,0.02,,2013-04-30 14:31:00,
2013-04-30 07:41:00,23.0,21.0,30.13,WNW,294,0.0,2.0,92,0.00,,,0.02,,2013-04-30 14:41:00,
2013-04-30 07:52:00,24.0,22.0,30.14,WNW,290,1.0,3.0,92,0.00,,,0.02,,2013-04-30 14:52:00,
2013-04-30 08:01:00,27.0,24.0,30.14,ESE,109,1.0,4.0,87,0.00,,,0.02,,2013-04-30 15:01:00,
2013-04-30 08:11:00,27.0,24.0,30.14,ESE,109,1.0,4.0,87,0.00,,,0.02,,2013-04-30 15:11:00,
2013-04-30 08:21:00,28.0,23.0,30.15,ESE,109,0.0,2.0,82,0.00,,,0.02,,2013-04-30 15:21:00,
2013-04-30 08:32:00,30.0,24.0,30.15,ESE,113,0.0,2.0,78,0.00,,,0.02,,2013-04-30 15:32:00,
2013-04-30 08:42:00,30.0,24.0,30.15,ESE,113,0.0,2.0,78,0.00,,,0.02,,2013-04-30 15:42:00,
2013-04-30 08:52:00,30.0,22.0,30.16,ESE,114,0.0,4.0,73,0.00,,,0.02,,2013-04-30 15:52:00,
2013-04-30 09:02:00,33.0,24.0,30.16,NE,55,0.0,5.0,68,0.00,,,0.02,,2013-04-30 16:02:00,
2013-04-30 09:12:00,33.0,24.0,30.16,NE,55,0.0,5.0,68,0.00,,,0.02,,2013-04-30 16:12:00,
2013-04-30 09:22:00,33.0,23.0,30.16,East,85,1.0,7.0,65,0.00,,,0.02,,2013-04-30 16:22:00,
2013-04-30 09:33:00,34.0,22.0,30.16,ESE,111,0.0,10.0,62,0.00,,,0.02,,2013-04-30 16:33:00,
2013-04-30 09:42:00,34.0,22.0,30.16,ESE,111,0.0,10.0,62,0.00,,,0.02,,2013-04-30 16:42:00,
2013-04-30 09:52:00,36.0,22.0,30.16,ENE,67,6.0,11.0,57,0.00,,,0.02,,2013-04-30 16:52:00,
2013-04-30 10:02:00,36.0,21.0,30.16,ENE,63,3.0,12.0,54,0.00,,,0.02,,2013-04-30 17:02:00,
2013-04-30 10:12:00,36.0,21.0,30.16,ENE,63,3.0,12.0,54,0.00,,,0.02,,2013-04-30 17:12:00,
2013-04-30 10:22:00,37.0,21.0,30.16,NE,38,1.0,12.0,53,0.00,,,0.02,,2013-04-30 17:22:00,
2013-04-30 10:32:00,37.0,21.0,30.17,NNE,32,7.0,14.0,51,0.00,,,0.01,,2013-04-30 17:32:00,
2013-04-30 10:42:00,37.0,21.0,30.17,NNE,32,7.0,14.0,51,0.00,,,0.01,,2013-04-30 17:42:00,
2013-04-30 10:52:00,38.0,21.0,30.17,NNE,15,7.0,13.0,49,0.00,,,0.01,,2013-04-30 17:52:00,
2013-04-30 11:01:00,37.0,19.0,30.17,ENE,74,0.0,9.0,47,0.00,,,0.01,,2013-04-30 18:01:00,
2013-04-30 11:11:00,37.0,19.0,30.17,ENE,74,0.0,9.0,47,0.00,,,0.01,,2013-04-30 18:11:00,
2013-04-30 11:22:00,41.0,20.0,30.17,North,360,6.0,14.0,43,0.00,,,0.01,,2013-04-30 18:22:00,
2013-04-30 11:32:00,40.0,20.0,30.17,NE,55,5.0,9.0,45,0.00,,,0.00,,2013-04-30 18:32:00,
2013-04-30 11:41:00,40.0,20.0,30.17,NE,55,5.0,9.0,45,0.00,,,0.00,,2013-04-30 18:41:00,
2013-04-30 11:51:00,42.0,21.0,30.18,NNE,19,5.0,14.0,43,0.00,,,0.00,,2013-04-30 18:51:00,
2013-04-30 12:01:00,42.0,21.0,30.18,NE,39,6.0,11.0,42,0.00,,,0.00,,2013-04-30 19:01:00,
2013-04-30 12:11:00,42.0,21.0,30.18,NE,39,6.0,11.0,42,0.00,,,0.00,,2013-04-30 19:11:00,
2013-04-30 12:21:00,43.0,19.0,30.18,NE,48,8.0,13.0,38,0.00,,,0.00,,2013-04-30 19:21:00,
2013-04-30 12:31:00,45.0,22.0,30.18,East,96,7.0,15.0,39,0.00,,,0.00,,2013-04-30 19:31:00,
2013-04-30 12:41:00,45.0,22.0,30.18,East,96,7.0,15.0,39,0.00,,,0.00,,2013-04-30 19:41:00,
2013-04-30 12:52:00,45.0,20.0,30.17,ENE,73,5.0,14.0,37,0.00,,,0.00,,2013-04-30 19:52:00,
2013-04-30 13:02:00,47.0,21.0,30.17,NE,51,6.0,15.0,35,0.00,,,0.00,,2013-04-30 20:02:00,
2013-04-30 13:11:00,47.0,21.0,30.17,NE,51,6.0,15.0,35,0.00,,,0.00,,2013-04-30 20:11:00,
2013-04-30 13:21:00,48.0,20.0,30.17,NNE,27,11.0,16.0,33,0.00,,,0.00,,2013-04-30 20:21:00,
2013-04-30 13:32:00,48.0,20.0,30.17,East,90,12.0,17.0,32,0.00,,,0.00,,2013-04-30 20:32:00,
2013-04-30 13:42:00,48.0,20.0,30.17,East,90,12.0,17.0,32,0.00,,,0.00,,2013-04-30 20:42:00,
2013-04-30 13:52:00,49.0,20.0,30.17,NE,52,15.0,21.0,31,0.00,,,0.00,,2013-04-30 20:52:00,
2013-04-30 14:01:00,49.0,17.0,30.18,NE,45,9.0,18.0,28,0.00,,,0.00,,2013-04-30 21:01:00,
2013-04-30 14:11:00,49.0,17.0,30.18,NE,45,9.0,18.0,28,0.00,,,0.00,,2013-04-30 21:11:00,
2013-04-30 14:22:00,49.0,17.0,30.18,ENE,71,13.0,22.0,28,0.00,,,0.00,,2013-04-30 21:22:00,
2013-04-30 14:32:00,49.0,16.0,30.18,East,94,12.0,24.0,26,0.00,,,0.00,,2013-04-30 21:32:00,
2013-04-30 14:42:00,49.0,16.0,30.18,East,94,12.0,24.0,26,0.00,,,0.00,,2013-04-30 21:42:00,
2013-04-30 14:52:00,50.0,16.0,30.18,NE,54,16.0,22.0,26,0.00,,,0.00,,2013-04-30 21:52:00,
2013-04-30 15:02:00,50.0,16.0,30.19,ENE,67,10.0,24.0,25,0.00,,,0.00,,2013-04-30 22:02:00,
2013-04-30 15:12:00,50.0,16.0,30.19,ENE,67,10.0,24.0,25,0.00,,,0.00,,2013-04-30 22:12:00,
2013-04-30 15:22:00,50.0,17.0,30.19,North,360,13.0,20.0,27,0.00,,,0.00,,2013-04-30 22:22:00,
2013-04-30 15:32:00,50.0,16.0,30.20,ENE,69,15.0,23.0,26,0.00,,,0.00,,2013-04-30 22:32:00,
2013-04-30 15:41:00,50.0,16.0,30.20,ENE,69,15.0,23.0,26,0.00,,,0.00,,2013-04-30 22:41:00,
2013-04-30 15:52:00,50.0,16.0,30.20,ENE,60,13.0,25.0,25,0.00,,,0.00,,2013-04-30 22:52:00,
2013-04-30 16:02:00,50.0,15.0,30.20,NE,50,9.0,20.0,24,0.00,,,0.00,,2013-04-30 23:02:00,
2013-04-30 16:11:00,50.0,15.0,30.20,NE,50,9.0,20.0,24,0.00,,,0.00,,2013-04-30 23:11:00,
2013-04-30 16:21:00,51.0,17.0,30.20,NE,56,15.0,20.0,26,0.00,,,0.00,,2013-04-30 23:21:00,
2013-04-30 16:32:00,50.0,16.0,30.20,ENE,61,16.0,24.0,26,0.00,,,0.00,,2013-04-30 23:32:00,
2013-04-30 16:42:00,50.0,16.0,30.20,ENE,61,16.0,24.0,26,0.00,,,0.00,,2013-04-30 23:42:00,
2013-04-30 16:52:00,51.0,18.0,30.20,NE,36,11.0,23.0,27,0.00,,,0.00,,2013-04-30 23:52:00,
2013-04-30 17:01:00,49.0,15.0,30.20,ENE,57,16.0,24.0,25,0.00,,,0.00,,2013-05-01 00:01:00,
2013-04-30 17:11:00,49.0,15.0,30.20,ENE,57,16.0,24.0,25,0.00,,,0.00,,2013-05-01 00:11:00,
2013-04-30 17:21:00,49.0,15.0,30.21,NNE,23,13.0,22.0,25,0.00,,,0.00,,2013-05-01 00:21:00,
2013-04-30 17:31:00,49.0,16.0,30.22,NE,47,13.0,20.0,26,0.00,,,0.00,,2013-05-01 00:31:00,
2013-04-30 17:42:00,49.0,16.0,30.22,NE,47,13.0,20.0,26,0.00,,,0.00,,2013-05-01 00:42:00,
2013-04-30 17:51:00,49.0,16.0,30.22,NNE,30,14.0,19.0,26,0.00,,,0.00,,2013-05-01 00:51:00,
2013-04-30 18:01:00,49.0,16.0,30.22,NNE,27,9.0,16.0,27,0.00,,,0.00,,2013-05-01 01:01:00,
2013-04-30 18:11:00,49.0,16.0,30.22,NNE,27,9.0,16.0,27,0.00,,,0.00,,2013-05-01 01:11:00,
2013-04-30 18:21:00,49.0,17.0,30.23,NE,56,12.0,21.0,28,0.00,,,0.00,,2013-05-01 01:21:00,
2013-04-30 18:31:00,48.0,17.0,30.24,NE,48,11.0,19.0,29,0.00,,,0.00,,2013-05-01 01:31:00,
2013-04-30 18:41:00,48.0,17.0,30.24,NE,48,11.0,19.0,29,0.00,,,0.00,,2013-05-01 01:41:00,
2013-04-30 18:52:00,47.0,16.0,30.24,NE,54,10.0,19.0,28,0.00,,,0.00,,2013-05-01 01:52:00,
2013-04-30 19:01:00,47.0,17.0,30.24,NE,51,10.0,17.0,30,0.00,,,0.00,,2013-05-01 02:01:00,
2013-04-30 19:11:00,47.0,17.0,30.24,NE,51,10.0,17.0,30,0.00,,,0.00,,2013-05-01 02:11:00,
2013-04-30 19:21:00,46.0,17.0,30.25,NE,56,12.0,19.0,31,0.00,,,0.00,,2013-05-01 02:21:00,
2013-04-30 19:32:00,45.0,17.0,30.25,NNE,31,7.0,15.0,32,0.00,,,0.00,,2013-05-01 02:32:00,
2013-04-30 19:42:00,45.0,17.0,30.25,NNE,31,7.0,15.0,32,0.00,,,0.00,,2013-05-01 02:42:00,
2013-04-30 19:51:00,44.0,17.0,30.26,NE,53,10.0,17.0,34,0.00,,,0.00,,2013-05-01 02:51:00,
2013-04-30 20:01:00,43.0,18.0,30.27,NNE,25,6.0,15.0,36,0.00,,,0.00,,2013-05-01 03:01:00,
2013-04-30 20:11:00,43.0,18.0,30.27,NNE,25,6.0,15.0,36,0.00,,,0.00,,2013-05-01 03:11:00,
2013-04-30 20:21:00,42.0,21.0,30.28,NE,46,11.0,16.0,43,0.00,,,0.00,,2013-05-01 03:21:00,
2013-04-30 20:32:00,40.0,21.0,30.29,ENE,57,5.0,8.0,47,0.00,,,0.00,,2013-05-01 03:32:00,
2013-04-30 20:42:00,40.0,21.0,30.29,ENE,57,5.0,8.0,47,0.00,,,0.00,,2013-05-01 03:42:00,
2013-04-30 20:52:00,39.0,21.0,30.30,NE,51,2.0,16.0,49,0.00,,,0.00,,2013-05-01 03:52:00,
2013-04-30 21:03:00,38.0,22.0,30.30,NE,42,4.0,10.0,52,0.00,,,0.00,,2013-05-01 04:03:00,
2013-04-30 21:12:00,38.0,22.0,30.30,NE,42,4.0,10.0,52,0.00,,,0.00,,2013-05-01 04:12:00,
2013-04-30 21:22:00,37.0,21.0,30.32,ENE,59,5.0,10.0,53,0.00,,,0.00,,2013-05-01 04:22:00,
2013-04-30 21:32:00,36.0,21.0,30.32,NE,37,4.0,8.0,55,0.00,,,0.00,,2013-05-01 04:32:00,
2013-04-30 21:42:00,36.0,21.0,30.32,NE,37,4.0,8.0,55,0.00,,,0.00,,2013-05-01 04:42:00,
2013-04-30 21:52:00,35.0,22.0,30.33,NNE,30,4.0,7.0,58,0.00,,,0.00,,2013-05-01 04:52:00,
2013-04-30 22:02:00,35.0,22.0,30.34,NNE,22,6.0,11.0,58,0.00,,,0.00,,2013-05-01 05:02:00,
2013-04-30 22:11:00,35.0,22.0,30.34,NNE,22,6.0,11.0,58,0.00,,,0.00,,2013-05-01 05:11:00,
2013-04-30 22:21:00,34.0,21.0,30.35,NE,45,3.0,8.0,59,0.00,,,0.00,,2013-05-01 05:21:00,
2013-04-30 22:32:00,33.0,21.0,30.36,NE,39,3.0,7.0,62,0.00,,,0.00,,2013-05-01 05:32:00,
2013-04-30 22:41:00,33.0,21.0,30.36,NE,39,3.0,7.0,62,0.00,,,0.00,,2013-05-01 05:41:00,
2013-04-30 22:52:00,33.0,22.0,30.36,NE,34,0.0,4.0,63,0.00,,,0.00,,2013-05-01 05:52:00,
2013-04-30 23:02:00,32.0,21.0,30.37,NNE,17,0.0,2.0,64,0.00,,,0.00,,2013-05-01 06:02:00,
2013-04-30 23:11:00,32.0,21.0,30.37,NNE,17,0.0,2.0,64,0.00,,,0.00,,2013-05-01 06:11:00,
2013-04-30 23:22:00,31.0,22.0,30.37,NE,48,1.0,3.0,68,0.00,,,0.00,,2013-05-01 06:22:00,
2013-04-30 23:32:00,31.0,22.0,30.37,NE,48,0.0,3.0,69,0.00,,,0.00,,2013-05-01 06:32:00,
2013-04-30 23:42:00,31.0,22.0,30.37,NE,48,0.0,3.0,69,0.00,,,0.00,,2013-05-01 06:42:00,
2013-04-30 23:51:00,31.0,22.0,30.37,NE,48,0.0,1.0,69,0.00,,,0.00,,2013-05-01 06:51:00,